Time,TemperatureF,DewpointF,PressureIn,WindDirection,WindDirectionDegrees,WindSpeedMPH,WindSpeedGustMPH,Humidity,HourlyPrecipIn,Conditions,Clouds,dailyrainin,SoftwareType,DateUTC
2013-06-22 00:00:00,67.1,54.1,29.79,SSW,210,0.0,2.0,63,0.00,CLR,,0.00,WeatherDisplay:10.37,2013-06-22 04:00:00,
2013-06-22 00:15:00,67.6,53.7,29.79,SSW,210,0.0,2.0,61,0.00,CLR,,0.00,WeatherDisplay:10.37,2013-06-22 04:15:00,
2013-06-22 00:30:00,67.4,53.0,29.78,SSW,210,1.0,1.0,60,0.00,CLR,,0.00,WeatherDisplay:10.37,2013-06-22 04:30:00,
2013-06-22 00:45:00,67.1,53.2,29.78,SSW,210,1.0,2.0,61,0.00,CLR,,0.00,WeatherDisplay:10.37,2013-06-22 04:45:00,
2013-06-22 01:00:00,67.3,52.9,29.78,SSW,210,0.0,2.0,60,0.00,CLR,,0.00,WeatherDisplay:10.37,2013-06-22 05:00:00,
2013-06-22 01:15:00,68.1,52.3,29.79,SSW,210,0.0,2.0,57,0.00,CLR,,0.00,WeatherDisplay:10.37,2013-06-22 05:15:00,
2013-06-22 01:30:00,68.4,52.1,29.78,SSW,210,1.0,2.0,56,0.00,CLR,,0.00,WeatherDisplay:10.37,2013-06-22 05:30:00,
2013-06-22 01:45:00,68.3,52.5,29.79,SSW,210,0.0,2.0,57,0.00,CLR,,0.00,WeatherDisplay:10.37,2013-06-22 05:45:00,
2013-06-22 02:00:00,67.8,52.0,29.79,SSW,210,0.0,1.0,57,0.00,CLR,,0.00,WeatherDisplay:10.37,2013-06-22 06:00:00,
2013-06-22 02:15:00,67.9,52.1,29.79,SSW,210,1.0,2.0,57,0.00,CLR,,0.00,WeatherDisplay:10.37,2013-06-22 06:15:00,
2013-06-22 02:30:00,67.2,51.9,29.79,SSW,210,1.0,1.0,58,0.00,CLR,,0.00,WeatherDisplay:10.37,2013-06-22 06:30:00,
2013-06-22 02:45:00,66.8,52.0,29.78,SSW,210,0.0,1.0,59,0.00,CLR,,0.00,WeatherDisplay:10.37,2013-06-22 06:45:00,
2013-06-22 03:00:00,67.3,51.5,29.78,SSW,210,0.0,2.0,57,0.00,CLR,,0.00,WeatherDisplay:10.37,2013-06-22 07:00:00,
2013-06-22 03:15:00,67.9,51.6,29.78,SSW,210,1.0,2.0,56,0.00,CLR,,0.00,WeatherDisplay:10.37,2013-06-22 07:15:00,
2013-06-22 03:30:00,68.1,51.3,29.78,SSW,210,1.0,2.0,55,0.00,CLR,,0.00,WeatherDisplay:10.37,2013-06-22 07:30:00,
2013-06-22 03:45:00,68.4,51.1,29.77,SSW,210,1.0,2.0,54,0.00,CLR,,0.00,WeatherDisplay:10.37,2013-06-22 07:45:00,
2013-06-22 04:00:00,68.3,51.0,29.77,SSW,210,0.0,2.0,54,0.00,CLR,,0.00,WeatherDisplay:10.37,2013-06-22 08:00:00,
2013-06-22 04:15:00,67.8,51.0,29.77,SSW,210,0.0,0.0,55,0.00,CLR,,0.00,WeatherDisplay:10.37,2013-06-22 08:15:00,
2013-06-22 04:30:00,67.8,51.0,29.77,SSW,210,0.0,1.0,55,0.00,CLR,,0.00,WeatherDisplay:10.37,2013-06-22 08:30:00,
2013-06-22 04:45:00,67.6,50.9,29.77,SSW,210,0.0,1.0,55,0.00,CLR,,0.00,WeatherDisplay:10.37,2013-06-22 08:45:00,
2013-06-22 05:00:00,67.3,51.1,29.77,SSW,210,0.0,1.0,56,0.00,CLR,,0.00,WeatherDisplay:10.37,2013-06-22 09:00:00,
2013-06-22 05:15:00,66.9,51.2,29.78,SSW,210,0.0,1.0,57,0.00,CLR,,0.00,WeatherDisplay:10.37,2013-06-22 09:15:00,
2013-06-22 05:30:00,66.3,52.0,29.79,SSW,210,0.0,0.0,60,0.00,CLR,,0.00,WeatherDisplay:10.37,2013-06-22 09:30:00,
2013-06-22 05:45:00,65.5,53.0,29.79,SSW,210,0.0,1.0,64,0.00,CLR,,0.00,WeatherDisplay:10.37,2013-06-22 09:45:00,
2013-06-22 06:00:00,65.2,53.1,29.79,SSW,210,0.0,1.0,65,0.00,CLR,,0.00,WeatherDisplay:10.37,2013-06-22 10:00:00,
2013-06-22 06:15:00,64.8,52.8,29.78,SSW,210,0.0,1.0,65,0.00,CLR,,0.00,WeatherDisplay:10.37,2013-06-22 10:15:00,
2013-06-22 06:30:00,65.3,54.4,29.77,SSW,210,0.0,1.0,68,0.00,CLR,,0.00,WeatherDisplay:10.37,2013-06-22 10:30:00,
2013-06-22 06:45:00,65.8,54.9,29.77,SSW,210,0.0,1.0,68,0.00,CLR,,0.00,WeatherDisplay:10.37,2013-06-22 10:45:00,
2013-06-22 07:00:00,66.1,55.2,29.78,SSW,210,0.0,1.0,68,0.00,CLR,,0.00,WeatherDisplay:10.37,2013-06-22 11:00:00,
2013-06-22 07:15:00,66.8,57.5,29.77,SSW,210,0.0,1.0,72,0.00,CLR,,0.00,WeatherDisplay:10.37,2013-06-22 11:15:00,
2013-06-22 07:30:00,67.3,59.5,29.77,SSW,210,0.0,0.0,76,0.00,CLR,,0.00,WeatherDisplay:10.37,2013-06-22 11:30:00,
2013-06-22 07:45:00,67.3,58.7,29.76,SSW,210,1.0,1.0,74,0.00,CLR,,0.00,WeatherDisplay:10.37,2013-06-22 11:45:00,
2013-06-22 08:00:00,68.4,59.0,29.76,SSW,210,0.0,1.0,72,0.00,BKN,,0.00,WeatherDisplay:10.37,2013-06-22 12:00:00,
2013-06-22 08:15:00,69.6,62.1,29.76,SSW,210,0.0,0.0,77,0.00,BKN,,0.00,WeatherDisplay:10.37,2013-06-22 12:15:00,
2013-06-22 08:30:00,69.1,62.7,29.77,SSW,210,0.0,1.0,80,0.00,BKN,,0.00,WeatherDisplay:10.37,2013-06-22 12:30:00,
2013-06-22 08:45:00,68.8,62.4,29.77,SSW,210,0.0,2.0,80,0.00,BKN,,0.00,WeatherDisplay:10.37,2013-06-22 12:45:00,
2013-06-22 09:00:00,69.6,60.6,29.76,SSW,207,1.0,2.0,73,0.00,BKN,,0.00,WeatherDisplay:10.37,2013-06-22 13:00:00,
2013-06-22 09:15:00,70.9,60.2,29.76,SSW,212,1.0,2.0,69,0.00,BKN,,0.00,WeatherDisplay:10.37,2013-06-22 13:15:00,
2013-06-22 09:30:00,71.6,59.6,29.76,SW,226,0.0,2.0,66,0.00,BKN,,0.00,WeatherDisplay:10.37,2013-06-22 13:30:00,
2013-06-22 09:45:00,73.0,60.5,29.76,SW,226,0.0,1.0,65,0.00,SCT,,0.00,WeatherDisplay:10.37,2013-06-22 13:45:00,
2013-06-22 10:00:00,73.7,61.6,29.77,SW,226,0.0,2.0,66,0.00,SCT,,0.00,WeatherDisplay:10.37,2013-06-22 14:00:00,
2013-06-22 10:15:00,74.5,61.5,29.76,SSW,209,0.0,3.0,64,0.00,BKN,,0.00,WeatherDisplay:10.37,2013-06-22 14:15:00,
2013-06-22 10:30:00,75.6,60.7,29.76,SSE,153,2.0,4.0,60,0.00,BKN,,0.00,WeatherDisplay:10.37,2013-06-22 14:30:00,
2013-06-22 10:45:00,74.6,60.7,29.77,SSE,156,1.0,5.0,62,0.00,SCT,,0.00,WeatherDisplay:10.37,2013-06-22 14:45:00,
2013-06-22 11:00:00,75.1,62.1,29.77,SSE,160,1.0,3.0,64,0.00,SCT,,0.00,WeatherDisplay:10.37,2013-06-22 15:00:00,
2013-06-22 11:15:00,76.5,61.1,29.77,South,189,0.0,3.0,59,0.00,BKN,,0.00,WeatherDisplay:10.37,2013-06-22 15:15:00,
2013-06-22 11:30:00,76.8,61.9,29.77,South,170,0.0,2.0,60,0.00,BKN,,0.00,WeatherDisplay:10.37,2013-06-22 15:30:00,
2013-06-22 11:45:00,77.0,61.6,29.77,South,180,0.0,3.0,59,0.00,BKN,,0.00,WeatherDisplay:10.37,2013-06-22 15:45:00,
2013-06-22 12:00:00,77.7,58.1,29.77,South,186,1.0,5.0,51,0.00,SCT,,0.00,WeatherDisplay:10.37,2013-06-22 16:00:00,
2013-06-22 12:15:00,78.6,59.5,29.76,South,182,2.0,3.0,52,0.00,CLR,,0.00,WeatherDisplay:10.37,2013-06-22 16:15:00,
2013-06-22 12:30:00,79.6,62.0,29.76,SW,222,1.0,6.0,55,0.00,CLR,,0.00,WeatherDisplay:10.37,2013-06-22 16:30:00,
2013-06-22 12:45:00,80.1,62.0,29.75,South,171,2.0,7.0,54,0.00,CLR,,0.00,WeatherDisplay:10.37,2013-06-22 16:45:00,
2013-06-22 13:00:00,80.1,62.0,29.75,South,177,1.0,7.0,54,0.00,CLR,,0.00,WeatherDisplay:10.37,2013-06-22 17:00:00,
2013-06-22 13:15:00,79.0,60.9,29.74,South,178,0.0,6.0,54,0.00,CLR,,0.00,WeatherDisplay:10.37,2013-06-22 17:15:00,
2013-06-22 13:30:00,79.9,61.8,29.74,South,178,1.0,4.0,54,0.00,CLR,,0.00,WeatherDisplay:10.37,2013-06-22 17:30:00,
2013-06-22 13:45:00,79.9,60.7,29.74,South,173,0.0,6.0,52,0.00,CLR,,0.00,WeatherDisplay:10.37,2013-06-22 17:45:00,
2013-06-22 14:00:00,78.6,62.1,29.73,SSW,199,0.0,2.0,57,0.00,CLR,,0.00,WeatherDisplay:10.37,2013-06-22 18:00:00,
2013-06-22 14:15:00,77.0,62.5,29.73,SSW,199,0.0,1.0,61,0.00,CLR,,0.00,WeatherDisplay:10.37,2013-06-22 18:15:00,
2013-06-22 14:30:00,75.6,63.0,29.73,SSW,199,0.0,2.0,65,0.00,CLR,,0.00,WeatherDisplay:10.37,2013-06-22 18:30:00,
2013-06-22 14:45:00,78.5,60.4,29.72,SSW,199,1.0,2.0,54,0.00,BKN,,0.00,WeatherDisplay:10.37,2013-06-22 18:45:00,
2013-06-22 15:00:00,78.7,63.7,29.72,South,190,0.0,3.0,60,0.00,BKN,,0.00,WeatherDisplay:10.37,2013-06-22 19:00:00,
2013-06-22 15:15:00,78.3,65.1,29.72,South,190,0.0,0.0,64,0.00,BKN,,0.00,WeatherDisplay:10.37,2013-06-22 19:15:00,
2013-06-22 15:30:00,77.1,65.3,29.71,South,190,0.0,1.0,67,0.00,BKN,,0.00,WeatherDisplay:10.37,2013-06-22 19:30:00,
2013-06-22 15:45:00,76.8,65.5,29.71,South,190,0.0,0.0,68,0.00,FEW,,0.00,WeatherDisplay:10.37,2013-06-22 19:45:00,
2013-06-22 16:00:00,75.6,65.5,29.71,South,190,0.0,0.0,71,0.00,FEW,,0.00,WeatherDisplay:10.37,2013-06-22 20:00:00,
2013-06-22 16:15:00,75.1,65.8,29.71,South,173,1.0,5.0,73,0.00,BKN,,0.00,WeatherDisplay:10.37,2013-06-22 20:15:00,
2013-06-22 16:30:00,74.4,66.7,29.71,South,180,0.0,2.0,77,0.00,BKN,,0.00,WeatherDisplay:10.37,2013-06-22 20:30:00,
2013-06-22 16:45:00,72.5,68.0,29.72,South,180,1.0,2.0,86,0.03,RA,,0.03,WeatherDisplay:10.37,2013-06-22 20:45:00,
2013-06-22 17:00:00,70.7,66.7,29.71,South,180,0.0,1.0,87,0.01,OVC,,0.04,WeatherDisplay:10.37,2013-06-22 21:00:00,
2013-06-22 17:15:00,69.6,66.9,29.71,South,180,1.0,2.0,91,0.00,OVC,,0.04,WeatherDisplay:10.37,2013-06-22 21:15:00,
2013-06-22 17:30:00,69.7,67.6,29.71,South,180,0.0,2.0,93,0.00,OVC,,0.04,WeatherDisplay:10.37,2013-06-22 21:30:00,
2013-06-22 17:45:00,69.5,67.4,29.70,South,180,0.0,2.0,93,0.00,OVC,,0.04,WeatherDisplay:10.37,2013-06-22 21:45:00,
2013-06-22 18:00:00,69.8,67.7,29.71,South,180,0.0,1.0,93,0.00,OVC,,0.04,WeatherDisplay:10.37,2013-06-22 22:00:00,
2013-06-22 18:15:00,69.6,67.5,29.71,South,180,0.0,0.0,93,0.00,BKN,,0.04,WeatherDisplay:10.37,2013-06-22 22:15:00,
2013-06-22 18:30:00,68.8,66.4,29.71,South,180,0.0,1.0,92,0.00,BKN,,0.04,WeatherDisplay:10.37,2013-06-22 22:30:00,
2013-06-22 18:45:00,67.6,64.9,29.71,South,180,1.0,2.0,91,0.00,SCT,,0.04,WeatherDisplay:10.37,2013-06-22 22:45:00,
2013-06-22 19:00:00,67.6,65.2,29.71,South,180,0.0,2.0,92,0.00,SCT,,0.04,WeatherDisplay:10.37,2013-06-22 23:00:00,
2013-06-22 19:15:00,67.4,65.0,29.71,South,180,1.0,2.0,92,0.00,FEW,,0.04,WeatherDisplay:10.37,2013-06-22 23:15:00,
2013-06-22 19:30:00,67.3,64.9,29.72,South,180,0.0,2.0,92,0.00,BKN,,0.04,WeatherDisplay:10.37,2013-06-22 23:30:00,
2013-06-22 19:45:00,67.3,65.5,29.72,SE,139,0.0,2.0,94,0.01,RA,,0.05,WeatherDisplay:10.37,2013-06-22 23:45:00,
2013-06-22 20:00:00,67.4,65.9,29.72,NE,49,0.0,2.0,95,0.00,BKN,,0.05,WeatherDisplay:10.37,2013-06-23 00:00:00,
2013-06-22 20:15:00,67.3,66.1,29.72,NE,49,0.0,1.0,96,0.01,RA,,0.06,WeatherDisplay:10.37,2013-06-23 00:15:00,
2013-06-22 20:30:00,67.1,65.9,29.72,NE,49,0.0,0.0,96,0.00,OVC,,0.06,WeatherDisplay:10.37,2013-06-23 00:30:00,
2013-06-22 20:45:00,67.3,66.4,29.72,NE,49,0.0,0.0,97,0.01,BKN,,0.07,WeatherDisplay:10.37,2013-06-23 00:45:00,
2013-06-22 21:00:00,67.3,66.4,29.72,NE,49,0.0,1.0,97,0.00,BKN,,0.07,WeatherDisplay:10.37,2013-06-23 01:00:00,
2013-06-22 21:15:00,66.6,65.4,29.72,NE,49,1.0,2.0,96,0.01,RA,,0.08,WeatherDisplay:10.37,2013-06-23 01:15:00,
2013-06-22 21:30:00,65.6,64.4,29.72,NE,49,1.0,2.0,96,0.00,OVC,,0.08,WeatherDisplay:10.37,2013-06-23 01:30:00,
2013-06-22 21:45:00,65.3,64.1,29.72,NE,49,1.0,2.0,96,0.00,BKN,,0.08,WeatherDisplay:10.37,2013-06-23 01:45:00,
2013-06-22 22:00:00,65.2,64.3,29.72,NE,49,0.0,2.0,97,0.00,BKN,,0.08,WeatherDisplay:10.37,2013-06-23 02:00:00,
2013-06-22 22:15:00,65.0,64.1,29.72,NE,49,0.0,2.0,97,0.00,SCT,,0.08,WeatherDisplay:10.37,2013-06-23 02:15:00,
2013-06-22 22:30:00,65.2,64.3,29.72,NE,49,0.0,3.0,97,0.00,BKN,,0.08,WeatherDisplay:10.37,2013-06-23 02:30:00,
2013-06-22 22:45:00,65.8,65.2,29.72,NE,50,0.0,3.0,98,0.00,OVC,,0.08,WeatherDisplay:10.37,2013-06-23 02:45:00,
2013-06-22 23:00:00,66.3,65.7,29.72,NE,47,1.0,3.0,98,0.00,OVC,,0.08,WeatherDisplay:10.37,2013-06-23 03:00:00,
2013-06-22 23:15:00,66.4,65.8,29.72,NNE,29,0.0,3.0,98,0.00,OVC,,0.08,WeatherDisplay:10.37,2013-06-23 03:15:00,
2013-06-22 23:30:00,66.4,65.8,29.72,NNE,33,0.0,3.0,98,0.00,OVC,,0.08,WeatherDisplay:10.37,2013-06-23 03:30:00,
2013-06-22 23:45:00,66.1,65.2,29.72,NNE,28,0.0,0.0,97,0.00,CLR,,0.08,WeatherDisplay:10.37,2013-06-23 03:45:00,